Погода в Лобаново

Россия / Республика Крым     45˚46′26″N   34˚14′39″E
темп.,
°C
ветер,
м/с
пор.,
м/с
влажн.,
%
обл.,
%
осадки,
мм/ч
давл.,
гПа
погр.,
м
17 января, вс
вс1700:00−1˚всв4864100 0.0 1013762
03:00−1˚св71072100 0.0 1011828
06:00−3˚ссв81290100 0.4 1009642
09:00−3˚ссв81162100 1.0 1009673
12:00−3˚ссв81068100 0.0 1010720
15:00−5˚с7989100 0.6 1009581
18:00−6˚с6991100 1.1 1011534
21:00−6˚ссз5786100 1.5 1012424
18 января, пн
пн1800:00−7˚ссз4681100 0.1 1014423
03:00−8˚сз467998 0.1 1015440
06:00−9˚зсз458068 0.0 1016357
09:00−10˚зсз357882 0.0 1017290
12:00−7˚зсз22620 0.0 1018405
15:00−5˚ююв115713 0.0 1017481
18:00−7˚с347274 0.0 1018166
21:00−7˚сз349387 0.4 1018276
19 января, вт
вт1900:00−8˚сз3587100 0.4 1019293
03:00−9˚сз247798 0.4 1019248
06:00−10˚сз237892 0.0 101976
09:00−9˚сз357392 0.0 1020319
12:00−8˚зсз346681 0.0 1021770
15:00−7˚зсз567590 0.0 1020917
18:00−8˚зсз3583100 0.1 1021354
21:00−9˚сз227698 0.1 102354
20 января, ср
ср2000:00−9˚зсз127781 0.0 102326
03:00−10˚з117847 0.0 102421
06:00−10˚ююз118418 0.0 102421
09:00−9˚юв228723 0.0 102441
12:00−4˚вюв227362 0.0 1025242
15:00−3˚в347371 0.0 1024338
18:00−4˚вюв488495 0.0 1025231
21:00−3˚вюв489593 0.1 1026245
21 января, чт
чт2100:00−3˚юв479594 0.0 1025139
03:00−3˚юв449179 0.1 102586
06:00−1˚юв458775 0.0 1024109
09:00юв468687 0.0 1025126
12:00+2˚юв4782100 0.1 1025160
15:00+6˚ю478671 0.1 1024401
18:00+3˚ю449364 0.0 102465
21:00+3˚ююз5109268 0.0 1024188